Weather History for Northeast Philadelphia, PA

Change the Weather History Date:

Saturday, April 27, 2013

  Actual Average Record
Temperature  
Mean Temperature 55 °F -  
Max Temperature 69 °F 66 °F 81 °F (2011)
Min Temperature 42 °F 44 °F 36 °F (2001)
Degree Days  
Heating Degree Days 10    
Growing Degree Days 5 (Base 50)    
Moisture  
Dew Point 30 °F    
Average Humidity 38    
Maximum Humidity 60    
Minimum Humidity 24    
Precipitation  
Precipitation 0.00 in - - ()
Sea Level Pressure  
Sea Level Pressure 30.38 in    
Wind  
Wind Speed 5 mph (NE)    
Max Wind Speed 8 mph    
Max Gust Speed -    
Visibility 10 miles    
Events      
Averages and records for this station are not official NWS values.
T = Trace of Precipitation, MM = Missing Value Source: NWS Daily Summary

Daily Weather History Graph

Daily Weather History Graph

Search for Another Location

Airport:

Trip Planner

Search our weather history database for the weather conditions in past years. The results will help you decide how hot, cold, wet, or windy it might be!

Date:

Astronomy

Apr. 27, 2013 Rise Set
Actual Time 6:04 AM EDT 7:51 PM EDT
Civil Twilight 5:35 AM EDT 8:20 PM EDT
Nautical Twilight 5:00 AM EDT 8:55 PM EDT
Astronomical Twilight 4:23 AM EDT 9:33 PM EDT
Moon 10:17 PM EDT (4/27) 7:21 AM EDT (4/27)
Length of Visible Light 14h 44m
Length of Day
13h 46m
Waning Gibbous, 95% of the Moon is Illuminated
Apr 27
Waning Gibbous
May 2
Last Quarter
May 9
New
May 18
First Quarter
May 25
Full

Hourly Weather History & Observations

Time (EDT) Temp. Windchill Dew Point Humidity Pressure Visibility Wind Dir Wind Speed Gust Speed Precip Events Conditions
12:54 AM 46.9 °F - 28.9 °F 50% 30.42 in 10.0 mi NNW 6.9 mph - N/A   Clear
1:54 AM 44.1 °F 40.8 °F 28.9 °F 55% 30.42 in 10.0 mi North 5.8 mph - N/A   Clear
2:54 AM 46.4 °F 44.3 °F 26.6 °F 46% 30.41 in 10.0 mi NNE 4.6 mph - N/A   Clear
3:54 AM 44.1 °F 40.1 °F 28.9 °F 55% 30.42 in 10.0 mi NE 6.9 mph - N/A   Clear
4:54 AM 44.1 °F 41.5 °F 28.9 °F 55% 30.42 in 10.0 mi NNE 4.6 mph - N/A   Clear
5:54 AM 42.1 °F 38.4 °F 28.9 °F 60% 30.42 in 10.0 mi NE 5.8 mph - N/A   Clear
6:54 AM 45.0 °F 43.5 °F 30.0 °F 56% 30.43 in 10.0 mi NNE 3.5 mph - N/A   Clear
7:54 AM 51.1 °F - 30.9 °F 46% 30.45 in 10.0 mi NNE 8.1 mph - N/A   Clear
8:54 AM 54.0 °F - 30.0 °F 40% 30.46 in 10.0 mi NE 4.6 mph - N/A   Clear
9:54 AM 57.9 °F - 30.9 °F 36% 30.45 in 10.0 mi Calm Calm - N/A   Clear
10:54 AM 60.1 °F - 28.9 °F 31% 30.45 in 10.0 mi Calm Calm - N/A   Clear
11:54 AM 63.0 °F - 30.9 °F 30% 30.43 in 10.0 mi Calm Calm - N/A   Clear
12:54 PM 64.9 °F - 30.9 °F 28% 30.40 in 10.0 mi NNW 8.1 mph - N/A   Clear
1:54 PM 66.0 °F - 30.0 °F 26% 30.38 in 10.0 mi Calm Calm - N/A   Clear
2:54 PM 66.9 °F - 30.0 °F 25% 30.35 in 10.0 mi East 4.6 mph - N/A   Clear
3:54 PM 68.0 °F - 30.0 °F 24% 30.33 in 10.0 mi Calm Calm - N/A   Clear
4:54 PM 66.9 °F - 30.9 °F 26% 30.32 in 10.0 mi Variable 3.5 mph - N/A   Clear
5:54 PM 66.9 °F - 28.9 °F 24% 30.31 in 10.0 mi Calm Calm - N/A   Clear
6:54 PM 66.0 °F - 28.0 °F 24% 30.30 in 10.0 mi SSE 5.8 mph - N/A   Clear
7:54 PM 62.1 °F - 32.0 °F 32% 30.30 in 10.0 mi South 4.6 mph - N/A   Clear
8:54 PM 60.1 °F - 33.1 °F 36% 30.32 in 10.0 mi Variable 4.6 mph - N/A   Clear
9:54 PM 57.9 °F - 28.9 °F 33% 30.33 in 10.0 mi SSW 4.6 mph - N/A   Clear
10:54 PM 55.9 °F - 28.9 °F 36% 30.32 in 10.0 mi Variable 3.5 mph - N/A   Clear
11:54 PM 54.0 °F - 30.9 °F 41% 30.32 in 10.0 mi Calm Calm - N/A   Clear